Tracking 35280 objects as of 7-Sep-2026
HD Live streaming from Space Station
objects crossing your sky now

COSMOS 1408 DEB


COSMOS 1408 DEB is no longer on orbit


NORAD ID: 50360
Int'l Code: 1982-092ABW
Launch date: September 16, 1982
Source: Commonwealth of Independent States (former USSR) (CIS)
Launch site: PLESETSK MISSILE AND SPACE COMPLEX (PKMTR)
Decay date: 2022-06-21

Note: This is SATELLITE DEBRIS
Your satellite tracking list
Your tracking list is empty




NASA's NSSDC Master Catalog

Two Line Element Set (TLE):
1 50360U 82092ABW 22166.31977560  .01320715  00000-0  56418-2 0  9995
2 50360  82.5510 269.7601 0020163 303.3609  56.5729 15.82210391 28246
Source of the keplerian elements: AFSPC